Location: Wiesbaden
(50.0830°N, 8.2500°E)
Time: 19:39:17
(UTC+02:00)

ISS - Pass Details

Date: 12 July 2019
Orbit: 409 x 418 km, 51.6° (Epoch: 20 July)

Event Time Altitude Azimuth Distance (km) Brightness Sun altitude
Exits shadow 03:12:23 11° 266° (W) 1,396 -1.4 -14.6°
Maximum altitude 03:15:29 72° 350° (N) 438 -3.6 -14.4°
Drops below altitude 10° 03:18:48 10° 76° (ENE) 1,480 -0.4 -14.1°
Sets 03:20:54 0° 79° (E) 2,341 0.6 -14.0°
